This is the latest recevied weather packets stored in our database for station/object IK2YOU-3. If no packets are shown the sender has not sent any weather packets the latest 10 day(s).
| Time | Temp. | Humidity | Pressure | Rain* | Wind** | Luminosity | Snow |
|---|---|---|---|---|---|---|---|
| 1777737854 | 25.56° C | 24% | 1017.9 hPa | 0 mm | - | 166 W/m² | - |
| 1777737254 | 25.56° C | 25% | 1018 hPa | 0 mm | - | 194 W/m² | - |
| 1777736654 | 25.56° C | 24% | 1018.2 hPa | 0 mm | - | 192 W/m² | - |
| 1777736054 | 25.56° C | 24% | 1018.2 hPa | 0 mm | - | 224 W/m² | - |
| 1777735454 | 25° C | 24% | 1018.3 hPa | 0 mm | - | 249 W/m² | - |
| 1777734854 | 25° C | 26% | 1018.4 hPa | 0 mm | - | 321 W/m² | - |
| 1777734254 | 25.56° C | 24% | 1018.5 hPa | 0 mm | - | 321 W/m² | - |
| 1777733654 | 25° C | 25% | 1018.6 hPa | 0 mm | - | 315 W/m² | - |
| 1777733184 | 25° C | 25% | 1018.7 hPa | 0 mm | - | 337 W/m² | - |
| 1777732580 | 25° C | 25% | 1018.9 hPa | 0 mm | - | 356 W/m² | - |
| 1777731852 | 25° C | 24% | 1019 hPa | 0 mm | - | 356 W/m² | - |
| 1777731253 | 25° C | 24% | 1019.2 hPa | 0 mm | - | 370 W/m² | - |
| 1777730652 | 25.56° C | 24% | 1019.3 hPa | 0 mm | - | 325 W/m² | - |
| 1777730052 | 25° C | 24% | 1019.5 hPa | 0 mm | - | 423 W/m² | - |
| 1777729580 | 25° C | 25% | 1019.7 hPa | 0 mm | - | 428 W/m² | - |
| 1777728854 | 25° C | 25% | 1019.9 hPa | 0 mm | - | 422 W/m² | - |
| 1777728252 | 24.44° C | 25% | 1020 hPa | 0 mm | - | 487 W/m² | - |
| 1777727778 | 23.89° C | 27% | 1020.2 hPa | 0 mm | - | 432 W/m² | - |
| 1777727052 | 24.44° C | 26% | 1020.3 hPa | 0 mm | - | 465 W/m² | - |
| 1777726453 | 24.44° C | 24% | 1020.4 hPa | 0 mm | - | 521 W/m² | - |
| 1777725853 | 23.89° C | 25% | 1020.5 hPa | 0 mm | - | 524 W/m² | - |
| 1777725252 | 24.44° C | 26% | 1020.7 hPa | 0 mm | - | 488 W/m² | - |
| 1777724652 | 23.89° C | 24% | 1020.9 hPa | 0 mm | - | 494 W/m² | - |
| 1777724194 | 23.89° C | 27% | 1021.1 hPa | 0 mm | - | 544 W/m² | - |
| 1777723450 | 23.33° C | 27% | 1021.2 hPa | 0 mm | - | 537 W/m² | - |
* Rain latest hour (hover to see other rain measurements)
** Current wind speed in m/s (hover to see current wind gust speed)